Location: Newark
(25.4297°S, 49.2719°W)
Time: 21:23:56
(UTC+00:00)

Vanguard 1 Rocket - Pass Details

Date: 22 November 2019
Orbit: 650 x 4226 km, 34.3° (Epoch: 06 December)

Event Time Altitude Azimuth Distance (km) Brightness Sun altitude
Rises 12:40:56 0° 351° (N) 4,950 11.1 56.9°
Reaches altitude 10° 12:44:42 10° 6° (N) 4,448 11.1 57.7°
Maximum altitude 12:54:33 24° 54° (NE) 4,524 11.8 60.0°
Drops below altitude 10° 13:09:10 10° 98° (E) 6,840 12.4 63.3°
Sets 13:17:03 0° 109° (ESE) 8,270 12.6 65.0°
